This is the latest recevied weather packets stored in our database for station/object K6HN. If no packets are shown the sender has not sent any weather packets the latest 10 day(s).
| Time | Temp. | Humidity | Pressure | Rain* | Wind** | Luminosity | Snow |
|---|---|---|---|---|---|---|---|
| 1777876079 | 11.11° C | 50% | 1000.3 hPa | 0 mm | - | - | - |
| 1777875179 | 11.11° C | 50% | 1000 hPa | 0 mm | - | - | - |
| 1777874279 | 11.11° C | 50% | 1000 hPa | 0 mm | - | - | - |
| 1777873379 | 11.11° C | 50% | 1000 hPa | 0 mm | - | - | - |
| 1777872479 | 11.11° C | 50% | 999.7 hPa | 0 mm | - | - | - |
| 1777871579 | 11.11° C | 50% | 999.7 hPa | 0 mm | - | - | - |
| 1777870679 | 11.11° C | 50% | 999.7 hPa | 0 mm | - | - | - |
| 1777869779 | 11.11° C | 50% | 999.7 hPa | 0 mm | - | - | - |
| 1777868879 | 11.11° C | 51% | 999.3 hPa | 0 mm | - | - | - |
| 1777867979 | 11.11° C | 51% | 999.7 hPa | 0 mm | - | - | - |
| 1777867079 | 11.67° C | 51% | 999.3 hPa | 0 mm | - | - | - |
| 1777866179 | 11.67° C | 51% | 999 hPa | 0 mm | - | - | - |
| 1777865279 | 11.67° C | 51% | 999 hPa | 0 mm | - | - | - |
| 1777864379 | 11.67° C | 51% | 998.6 hPa | 0 mm | - | - | - |
| 1777863479 | 12.22° C | 51% | 998.6 hPa | 0 mm | - | - | - |
| 1777862579 | 12.22° C | 51% | 998.6 hPa | 0 mm | - | - | - |
| 1777861679 | 12.78° C | 50% | 998.6 hPa | 0 mm | - | - | - |
| 1777860779 | 13.33° C | 50% | 998.3 hPa | 0 mm | - | - | - |
| 1777859879 | 14.44° C | 50% | 998.6 hPa | 0 mm | - | - | - |
| 1777858979 | 15.56° C | 50% | 998.6 hPa | 0 mm | - | - | - |
| 1777858079 | 13.89° C | 50% | 999 hPa | 0 mm | - | - | - |
| 1777857179 | 15.56° C | 48% | 999 hPa | 0 mm | - | - | - |
| 1777856279 | 16.67° C | 49% | 998.6 hPa | 0 mm | - | - | - |
| 1777855379 | 16.67° C | 48% | 998.6 hPa | 0 mm | - | - | - |
| 1777854479 | 16.11° C | 48% | 998.6 hPa | 0 mm | - | - | - |
* Rain latest hour (hover to see other rain measurements)
** Current wind speed in m/s (hover to see current wind gust speed)